Ana Sayfa
METAR-TAF:

METAR-TAF

Havaalanları :

Wilkes County Airport

North Wilkesboro, Kuzey Carolina, Amerika Birleşik Devletleri

Enlem: 36-13N, Boylam: 081-05W, yükseklik: 396 m

Güncel hava durumu gözlemi

Rapor saat 10:15 UTC de 18 dakika önce yapıldı.
Rüzgar kuzeydan 7 kt
Sıcaklık 2°C
Nem 75%
Basınç 1027 hPa
Görüş mesafesi: 16.1 km
8000 ft yükseklikte çok bulutlu

METAR: KUKF 111015Z AUTO 35007KT 10SM OVC080 02/M02 A3032 RMK AO2

Saat: 05:33 (10:33 UTC)


TAF: eksik

4.000'den fazla havaalanı için hava durumu gözlemleri ve tahminleri (METAR ve TAF raporları).

Kullanılabilir istasyonlar harita üzerinde sarı ve kırmızı noktalarla gösterilir.

İstasyonun adını görmek için fareyi noktanın üzerinde gezdirin.

Sonrasında hava gözlem ve tahminlerini görmek için tıklayın.

Haritayı değiştirmek için: yaklaştırmak için siyah artı işaretli yeşil düğmeye ve uzaklaştırmak için de eksi işaretli düğmeye hızla tıklayın; bitişik haritalar için yeşil okları kullanın.


METAR-TAF: